Tracking 19717 objects as of 25-Jun-2019
HD Live streaming from Space Station
objects crossing your sky now

COSMOS 1823 DEB

Track COSMOS 1823 DEB now!
10-day predictions


NORAD ID: 20285
Int'l Code: 1987-020DP
Perigee: 1,491.7 km
Apogee: 1,620.6 km
Inclination: 73.6 °
Period: 117.1 minutes
Semi major axis: 7927 km
RCS: 0.0247 m2 (small)
Launch date: February 20, 1987
Source: Commonwealth of Independent States (former USSR) (CIS)
Launch site: PLESETSK MISSILE AND SPACE COMPLEX (PKMTR)

Note: This is SATELLITE DEBRIS
aabbcc
Your satellite tracking list
Your tracking list is empty




NASA's NSSDC Master Catalog

Two Line Element Set (TLE):
1 20285U 87020DP  19173.89063858 -.00000068 +00000-0 -43392-3 0  9992
2 20285 073.6421 243.6211 0081304 212.1312 268.5203 12.30061967284598
Source of the keplerian elements: AFSPC